User: anonymous
Location: Pleiades Observatory
(40.1297°N, 91.5238°W)
Time: 22:49:25
(UTC-05:00)
Language:

Cosmos 1842 Rocket - Orbit

View from above orbital plane
View from above orbital plane
View from above satellite
View from above satellite

Ground track
Ground track

The orbit data is extracted from the following two-line orbital elements,

1 17912U 87038B   14106.86644983  .00000695  00000-0  83624-4 0  3201
2 17912 082.5041 055.8355 0022023 082.2659 278.1055 14.82321717456249
Epoch (UTC): 16 April 2014 20:47:41
Eccentricity: 0.0022023
inclination: 82.5041°
perigee height: 606 km
apogee height: 637 km
right ascension of ascending node: 55.8355°
argument of perigee: 82.2659°
revolutions per day: 14.82321717
mean anomaly at epoch: 278.1055°
orbit number at epoch: 45624

The dashed part of the orbit path shows where the satellite is in the earth's shadow,  

DLR